User: anonymous   Login
Location: Unspecified
(0.0000°N, 0.0000°E)
Time: 01:50:35
(UTC+00:00)
Language:

SICRAL 1 - Orbit

View from above orbital plane
View from above orbital plane
View from above satellite
View from above satellite

Ground track
Ground track

The orbit data is extracted from the following two-line orbital elements,

1 26694U 01005A   19109.50669765 0.00000000  00000-0  00000-0 0    00
2 26694   8.2938  45.9587 0001999 137.9060 222.1658  1.00270000    07
Epoch (UTC): 19 April 2019 12:09:38
Eccentricity: 0.0001999
inclination: 8.2938°
perigee height: 35778 km
apogee height: 35795 km
right ascension of ascending node: 45.9587°
argument of perigee: 137.9060°
revolutions per day: 1.00270000
mean anomaly at epoch: 222.1658°
orbit number at epoch: 0

The dashed part of the orbit path shows where the satellite is in the earth's shadow,  

DLR